Location: Beckers Corners
(42.5484°N, 73.8110°W)
Time: 05:23:34
(UTC+00:00)

DIWATA 2B (PO-101) - Pass Details

Date: 13 December 2024
Orbit: 569 x 582 km, 98.1° (Epoch: 18 January)

Event Time Altitude Azimuth Distance (km) Brightness Sun altitude
Rises 22:49:13 0° 360° (N) 2,788 ? -15.3°
Reaches altitude 10° 22:51:40 10° 346° (NNW) 1,883 ? -15.8°
Maximum altitude 22:54:56 24° 293° (WNW) 1,214 ? -16.4°
Drops below altitude 10° 22:58:10 10° 239° (WSW) 1,868 ? -16.9°
Sets 23:00:36 0° 225° (SW) 2,760 ? -17.4°
